Find Starlink 11431

NORAD ID: 62890 Int'l Des: 2025-024 Owner: SPXS Country: US Constellation: starlink operational
別名: STARLINK-11431 [DTC] celestrak
LEOCIRCULAR

現在のビュー

3D地球を読み込み中...

About Starlink 11431

Starlink 11431 (NORAD 62890) is a starlink constellation satellite (v2 mini d2c) launched Feb 4, 2025 by SPXS of US. It operates in LEO, CIRCULAR orbit with a mass of 960.00 kg.

次回通過

Passes for default location (London). Set your location on the main map for personalized predictions.

高度履歴

Loading altitude history...

軌道要素

1 62890U 25024M 26264.79290981 .00224595 00000-0 16991-2 0 9998
2 62890 43.0006 79.8470 0001142 256.5044 103.5697 15.70949109 94301
Epoch: Sep 21, 2026 • Age: 13 hours

現在のステータス

高度 363.1 km
遠地点 / 近地点 N/A
速度 7.69 km/s
衛星直下点 -30.57°S, 171.34°E
打ち上げ日 Feb 4, 2025
運用期間 1.6 years
タイプ internet

技術仕様

分類 Payload
質量 960.00 kg
乾燥質量 910.00 kg
長さ 0.30 m
スパン 29.00 m
形状 ? Box + pan
製造者 SPXS
バスタイプ Starlink V2MD
フェーズステータス In Orbit
所有者/国 SPXS/US

Most Searched